Cape Girardeau, MO

12:21 PM CST on December 06, 2019 (GMT -0600)
Cape Girardeau Regional

Weather History for KCGI - October, 2019

Change the Weather History Date:

Monday, October 14, 2019

  Actual Average Record
Temperature  
Mean Temperature 57 °F 58 °F  
Max Temperature 75 °F 71 °F 90 °F (2017)
Min Temperature 39 °F 45 °F 25 °F (2006)
Degree Days  
Heating Degree Days 9    
Month to date heating degree days  
Since 1 July heating degree days  
Cooling Degree Days 0    
Month to date cooling degree days  
Year to date cooling degree days  
Growing Degree Days 6 (Base 50)    
Moisture  
Dew Point 43 °F    
Average Humidity 67    
Maximum Humidity 92    
Minimum Humidity 33    
Precipitation  
Precipitation 0.00 in 0.12 in 1.01 in (1974)
Month to date precipitation 1.75 1.63  
Year to date precipitation 49.42 35.96  
Sea Level Pressure  
Sea Level Pressure 30.07 in    
Wind  
Wind Speed 1 mph (SE)    
Max Wind Speed 8 mph    
Max Gust Speed 10 mph    
Visibility 10 miles    
Events      
T = Trace of Precipitation, MM = Missing Value Source: NWS Daily Summary

Daily Weather History Graph

Daily Weather History Graph

Search for Another Location

Airport or City:

Astronomy

Oct. 14, 2019 Rise Set
Actual Time 7:05 AM CDT 6:22 PM CDT
Civil Twilight 6:38 AM CDT 6:49 PM CDT
Nautical Twilight 6:08 AM CDT 7:19 PM CDT
Astronomical Twilight 5:38 AM CDT 7:49 PM CDT
Moon 7:13 PM CDT (10/14) 7:37 AM CDT (10/14)
Length of Visible Light 12h 10m
Length of Day
11h 17m
Full, 99% of the Moon is Illuminated
Oct 14
Full
Oct 21
Last Quarter
Oct 27
New
Nov 4
First Quarter
Nov 12
Full

Hourly Weather History & Observations

Time (CDT) Temp. Windchill Dew Point Humidity Pressure Visibility Wind Dir Wind Speed Gust Speed Precip Events Conditions
12:53 AM 44.1 °F - 39.9 °F 85% 30.04 in 10.0 mi Calm Calm - N/A   Clear
1:53 AM 45.0 °F - 39.9 °F 82% 30.04 in 10.0 mi Calm Calm - N/A   Clear
2:53 AM 44.1 °F - 39.0 °F 82% 30.04 in 10.0 mi Calm Calm - N/A   Clear
3:53 AM 42.1 °F - 39.0 °F 89% 30.05 in 10.0 mi Calm Calm - N/A   Clear
4:53 AM 43.0 °F 40.3 °F 39.9 °F 89% 30.06 in 10.0 mi South 4.6 mph - N/A   Clear
5:53 AM 41.0 °F - 37.9 °F 89% 30.08 in 10.0 mi Calm Calm - N/A   Clear
6:53 AM 39.0 °F 35.7 °F 37.0 °F 93% 30.09 in 10.0 mi South 4.6 mph - N/A   Clear
7:53 AM 42.1 °F - 39.0 °F 89% 30.11 in 10.0 mi Calm Calm - N/A   Clear
9:53 AM 55.9 °F - 45.0 °F 67% 30.14 in 10.0 mi Calm Calm - N/A   Clear
10:53 AM 62.1 °F - 46.0 °F 56% 30.12 in 10.0 mi Calm Calm - N/A   Clear
11:53 AM 66.0 °F - 46.9 °F 50% 30.12 in 10.0 mi Calm Calm - N/A   Clear
12:53 PM 70.0 °F - 44.1 °F 39% 30.10 in 10.0 mi Calm Calm - N/A   Clear
1:53 PM 72.0 °F - 45.0 °F 38% 30.06 in 10.0 mi Variable 4.6 mph - N/A   Clear
2:53 PM 73.0 °F - 43.0 °F 34% 30.05 in 10.0 mi SSE 3.5 mph - N/A   Clear
3:53 PM 73.0 °F - 42.1 °F 33% 30.04 in 10.0 mi SSE 4.6 mph - N/A   Clear
4:53 PM 73.0 °F - 43.0 °F 34% 30.04 in 10.0 mi SE 6.9 mph - N/A   Clear
5:53 PM 66.0 °F - 44.1 °F 45% 30.04 in 10.0 mi ESE 5.8 mph - N/A   Clear
6:53 PM 57.9 °F - 48.9 °F 72% 30.04 in 10.0 mi Calm Calm - N/A   Clear
7:53 PM 57.0 °F - 46.9 °F 69% 30.04 in 10.0 mi ESE 3.5 mph - N/A   Clear
10:53 PM 51.1 °F - 46.9 °F 86% 30.05 in 10.0 mi Calm Calm - N/A   Clear
11:53 PM 51.1 °F - 46.9 °F 86% 30.04 in 10.0 mi ESE 3.5 mph - N/A   Clear